Tracking 27112 objects as of 26-Mar-2023
HD Live streaming from Space Station
objects crossing your sky now

STARLINK-3263

Track STARLINK-3263 now!
10-day predictions
STARLINK-3263 is classified as:


NORAD ID: 50196
Int'l Code: 2021-125AS
Perigee: 545.9 km
Apogee: 547.9 km
Inclination: 53.2 °
Period: 95.4 minutes
Semi major axis: 6917 km
RCS: Unknown
Launch date: December 18, 2021
Source: United States (US)
Launch site: AIR FORCE WESTERN TEST RANGE (AFWTR)
Your satellite tracking list
Your tracking list is empty




NASA's NSSDC Master Catalog

Two Line Element Set (TLE):
1 50196U 21125AS  23084.31336523  .00006392  00000-0  41935-3 0  9990
2 50196  53.2175  49.1142 0001474  92.1901 267.9260 15.08839148 73633
Source of the keplerian elements: AFSPC